Location: Prague
(50.0830°N, 14.4670°E)
Time: 05:43:42
(UTC+02:00)

DOVE 4 - Pass Details

Date: 03 April 2023
Orbit: 584 x 791 km, 97.8° (Epoch: 29 May)

Event Time Altitude Azimuth Distance (km) Brightness Sun altitude
Rises 01:21:37 0° 3° (N) 3,152 ? -34.7°
Reaches altitude 10° 01:24:26 10° 348° (NNW) 2,187 ? -34.6°
Enters shadow 01:26:45 19° 321° (NW) 1,643 ? -34.6°
